Content
SEND FEEDBACK

Daily
Averages
Monthly
Summary
United States of America

WEST QUINCY, MISSOURI


Home > North America > United States > Missouri
Elevation: 480 feet     Latitude: 39 54N     Longitude: 091 26W

WEATHER
 
SELECT A DAY
Number of Records: 207,929;   Date Range: 1/1/95 - 12/19/14
 
SHARE

PRINT THIS DATA

[ ← Previous Day ]
WEATHER ALMANAC - JANUARY 31, 2013
[ Next Day → ]
[ °C ]   °F
Weather ElementAverageHighLow
Temperature15.6 °F24.8 °F (4:08 am)6.8 °F (10:22 pm)
Dewpoint5.8 °F16 °F (3:54 am)-4 °F (10:54 pm)
Humidity65.2 %74 % (6:51 am)57 % (12:54 pm)
Barometer30.12 in30.39 in (10:54 pm)29.87 in (4:08 am)
Wind Speed18.4 mph26.5 mph (5:57 pm)
Wind Gust32.2 mph (5:54 pm)
Weather ElementAverage
Visibility9.2 mi
Wind DirectionWNW (296.9 °)

Weather ElementTotal
Precipitation---
Heating Degree Days49.2 (Base 65)
Averaged from 39 records on January 31, 2013
WEATHER CONDITIONS BREAKOUT
WIND DIRECTION BREAKOUT
WEATHER BY HOUR - JANUARY 31, 2013
[ °C ]   °F
Local TimeTemperatureDewpointHumidityBarometerVisibilityWind DirectionWind SpeedGust SpeedPrecipitationEventsConditions
1:54 AM24.1 °F14.0 °F65 %29.91 in10.0 miWest (260°)17.3 mphOvercast
2:54 AM24.1 °F12.9 °F62 %29.91 in10.0 miWest (260°)13.8 mphOvercast
3:54 AM24.1 °F16.0 °F71 %29.90 in10.0 miWest (270°)10.4 mph21.9 mph0.00 inOvercast
4:08 AM24.8 °F15.8 °F69 %29.87 in10.0 miWest (270°)11.5 mph21.9 mphOvercast
4:54 AM24.1 °F15.1 °F69 %29.91 in10.0 miWNW (290°)15.0 mph27.6 mphOvercast
5:20 AM24.8 °F12.2 °F59 %29.89 in10.0 miWest (280°)16.1 mph25.3 mphOvercast
5:54 AM23.0 °F12.9 °F65 %29.93 in10.0 miWest (280°)15.0 mph23.0 mphOvercast
6:19 AM23.0 °F12.2 °F63 %29.90 in10.0 miWNW (290°)15.0 mph26.5 mphOvercast
6:51 AM19.4 °F12.2 °F74 %29.92 in10.0 miWNW (300°)18.4 mphScattered Clouds
6:54 AM19.9 °F12.9 °F74 %29.95 in10.0 miWNW (300°)18.4 mphScattered Clouds
7:54 AM19.9 °F10.9 °F68 %29.98 in10.0 miWNW (290°)18.4 mphOvercast
8:29 AM19.4 °F12.2 °F74 %29.96 in10.0 miWNW (300°)16.1 mphOvercast
8:54 AM19.0 °F12.0 °F74 %30.00 in10.0 miWNW (300°)16.1 mphOvercast
9:54 AM19.9 °F10.9 °F68 %30.04 in10.0 miNW (310°)16.1 mph0.00 inOvercast
10:54 AM19.9 °F12.0 °F71 %30.06 in10.0 miWest (280°)15.0 mphOvercast
11:11 AM19.4 °F6.8 °F58 %30.03 in10.0 miWNW (290°)19.6 mph26.5 mphMostly Cloudy
11:54 AM19.0 °F7.0 °F59 %30.07 in10.0 miNW (310°)17.3 mph26.5 mphMostly Cloudy
12:54 PM19.0 °F6.1 °F57 %30.08 in10.0 miNW (320°)18.4 mph25.3 mphOvercast
2:54 PM15.1 °F3.9 °F61 %30.15 in10.0 miNW (310°)24.2 mph28.8 mphOvercast
3:52 PM14.0 °F3.2 °F62 %30.14 in10.0 miNW (320°)18.4 mphOvercast
3:54 PM15.1 °F3.9 °F61 %30.18 in10.0 miNW (320°)20.7 mphOvercast
4:03 PM14.0 °F3.2 °F62 %30.15 in10.0 miWNW (300°)20.7 mph27.6 mphMostly Cloudy
4:20 PM15.8 °F3.2 °F58 %30.15 in10.0 miWest (280°)20.7 mph27.6 mphScattered Clouds
4:54 PM12.9 °F3.0 °F65 %30.20 in10.0 miNW (320°)19.6 mphMostly Cloudy
5:43 PM12.2 °F3.2 °F67 %30.19 in2.5 miNW (320°)21.9 mph29.9 mph0.00 inSnowLight Snow
5:52 PM12.2 °F5.0 °F73 %30.20 in1.5 miNW (310°)24.2 mph29.9 mph0.00 inSnowLight Snow
5:54 PM12.0 °F3.9 °F70 %30.24 in1.8 miNW (310°)20.7 mph32.2 mph0.00 inSnowLight Snow
5:57 PM12.2 °F3.2 °F67 %30.20 in3.0 miNW (320°)26.5 mph32.2 mph0.00 inSnowLight Snow
6:13 PM10.4 °F1.4 °F67 %30.22 in10.0 miWNW (300°)25.3 mph32.2 mph0.00 inMostly Cloudy
6:54 PM10.0 °F-0.9 °F61 %30.29 in10.0 miWNW (300°)23.0 mph32.2 mph0.00 inMostly Cloudy
7:54 PM9.0 °F-2.0 °F61 %30.32 in10.0 miWNW (300°)24.2 mph31.1 mphOvercast
8:23 PM8.6 °F-2.2 °F62 %30.29 in10.0 miWNW (300°)18.4 mph31.1 mphMostly Cloudy
8:54 PM8.1 °F-2.0 °F64 %30.35 in10.0 miWNW (300°)16.1 mph26.5 mphMostly Cloudy
9:54 PM7.0 °F-2.9 °F64 %30.38 in10.0 miWNW (300°)19.6 mph27.6 mphMostly Cloudy
10:22 PM6.8 °F-2.2 °F67 %30.34 in10.0 miWNW (290°)13.8 mph24.2 mphScattered Clouds
10:43 PM6.8 °F-2.2 °F67 %30.35 in10.0 miWNW (290°)16.1 mphMostly Cloudy
10:54 PM7.0 °F-4.0 °F61 %30.39 in10.0 miWNW (300°)19.6 mph26.5 mphMostly Cloudy
11:10 PM6.8 °F-4.0 °F61 %30.36 in10.0 miWNW (300°)19.6 mph24.2 mphPartly Cloudy
11:54 PM6.8 °F-4.0 °F61 %30.38 in10.0 miWNW (290°)15.0 mph26.5 mphClear
Hourly data recorded from KUIN, located miles away from West Quincy, Missouri







STORIES FROM OUR PARTNERS